St. Joseph, KS

10:02 AM CDT on March 25, 2017 (GMT -0500)
Rosecrans Memorial

Weather History for KSTJ - November, 2010

Change the Weather History Date:

Wednesday, November 10, 2010

  Actual Average Record
Temperature  
Mean Temperature 52 °F 45 °F  
Max Temperature 69 °F 56 °F 82 °F (1927)
Min Temperature 35 °F 34 °F 16 °F (1960)
Degree Days  
Heating Degree Days 13 20  
Month to date heating degree days 148 183  
Since 1 July heating degree days 431 602  
Cooling Degree Days 0 0  
Month to date cooling degree days 0 0  
Year to date cooling degree days 1464 1220  
Growing Degree Days 2 (Base 50)    
Moisture  
Dew Point 46 °F    
Average Humidity 71    
Maximum Humidity 92    
Minimum Humidity 49    
Precipitation  
Precipitation 0.00 in 0.05 in 0.43 in (1940)
Month to date precipitation 0.00 0.70  
Year to date precipitation 38.42 33.23  
Snow  
Snow 0.00 in - - ()
Month to date snowfall 0.0  
Snow Depth 0.00 in    
Sea Level Pressure  
Sea Level Pressure 29.90 in    
Wind  
Wind Speed 11 mph (SSW)    
Max Wind Speed 23 mph    
Max Gust Speed 30 mph    
Visibility 10 miles    
Events      
T = Trace of Precipitation, MM = Missing Value Source: NWS Daily Summary

Daily Weather History Graph

Daily Weather History Graph

Search for Another Location

Airport or City:

Trip Planner

Search our weather history database for the weather conditions in past years. The results will help you decide how hot, cold, wet, or windy it might be!

Date:

Astronomy

Nov. 10, 2010 Rise Set
Actual Time 6:58 AM CST 5:08 PM CST
Civil Twilight 6:29 AM CST 5:36 PM CST
Nautical Twilight 5:57 AM CST 6:08 PM CST
Astronomical Twilight 5:25 AM CST 6:40 PM CST
Moon 11:22 AM CST (11/10) 9:11 PM CST (11/10)
Length of Visible Light 11h 06m
Length of Day
10h 09m
Waxing Crescent, 23% of the Moon is Illuminated
Nov 10
Waxing Crescent
Nov 13
First Quarter
Nov 21
Full
Nov 28
Last Quarter
Dec 5
New

Hourly Weather History & Observations

Time (CST) Temp. Windchill Dew Point Humidity Pressure Visibility Wind Dir Wind Speed Gust Speed Precip Events Conditions
12:53 AM 60.1 °F - 46.0 °F 60% 29.79 in 10.0 mi South 13.8 mph - N/A   Clear
1:53 AM 59.0 °F - 46.4 °F 63% 29.80 in 10.0 mi South 12.7 mph - N/A   Clear
2:53 AM 59.0 °F - 46.9 °F 64% 29.78 in 10.0 mi South 11.5 mph - N/A   Clear
3:53 AM 57.9 °F - 48.0 °F 70% 29.78 in 10.0 mi South 13.8 mph - N/A   Clear
4:53 AM 57.0 °F - 48.0 °F 72% 29.79 in 10.0 mi SSE 10.4 mph - N/A   Clear
5:53 AM 57.2 °F - 48.2 °F 72% 29.80 in 10.0 mi SSE 6.9 mph - N/A   Clear
6:53 AM 57.9 °F - 48.9 °F 72% 29.80 in 10.0 mi South 12.7 mph - N/A   Clear
7:53 AM 59.0 °F - 50.0 °F 72% 29.81 in 10.0 mi South 10.4 mph - N/A   Clear
8:53 AM 62.1 °F - 52.0 °F 70% 29.81 in 10.0 mi South 18.4 mph 26.5 mph N/A   Clear
9:53 AM 64.0 °F - 53.1 °F 67% 29.81 in 10.0 mi South 18.4 mph 29.9 mph N/A   Scattered Clouds
10:15 AM 64.4 °F - 53.6 °F 68% 29.83 in 10.0 mi South 19.6 mph 26.5 mph N/A   Mostly Cloudy
10:53 AM 64.0 °F - 52.0 °F 65% 29.82 in 10.0 mi SSW 19.6 mph 26.5 mph N/A   Overcast
11:53 AM 63.0 °F - 52.0 °F 67% 29.83 in 10.0 mi South 18.4 mph 24.2 mph N/A   Overcast
12:53 PM 68.0 °F - 52.0 °F 56% 29.83 in 10.0 mi SSW 18.4 mph - N/A   Mostly Cloudy
1:53 PM 68.0 °F - 48.9 °F 50% 29.84 in 10.0 mi SSW 18.4 mph 23.0 mph N/A   Mostly Cloudy
2:32 PM 64.4 °F - 48.2 °F 56% 29.87 in 10.0 mi West 15.0 mph - N/A   Partly Cloudy
2:53 PM 64.0 °F - 48.0 °F 56% 29.88 in 10.0 mi WSW 13.8 mph 25.3 mph N/A   Clear
3:53 PM 63.0 °F - 46.0 °F 54% 29.91 in 10.0 mi West 13.8 mph 20.7 mph N/A   Clear
4:53 PM 57.0 °F - 43.0 °F 59% 29.95 in 10.0 mi WNW 11.5 mph - N/A   Clear
5:53 PM 50.0 °F - 41.0 °F 71% 29.99 in 10.0 mi NW 8.1 mph - N/A   Clear
6:53 PM 46.0 °F 42.5 °F 39.0 °F 76% 30.03 in 10.0 mi NNW 6.9 mph - N/A   Clear
7:53 PM 45.0 °F 42.6 °F 39.0 °F 80% 30.06 in 10.0 mi North 4.6 mph - N/A   Clear
8:53 PM 41.0 °F - 37.0 °F 86% 30.09 in 10.0 mi Calm Calm - N/A   Clear
9:53 PM 42.1 °F 39.2 °F 37.9 °F 85% 30.12 in 10.0 mi NNE 4.6 mph - N/A   Clear
10:53 PM 36.0 °F 32.1 °F 34.0 °F 93% 30.14 in 10.0 mi North 4.6 mph - N/A   Clear
11:53 PM 37.0 °F - 35.1 °F 93% 30.17 in 10.0 mi Calm Calm - N/A   Clear